[Iaude] MPEC J24: 2024 HX2 [a=1.62,e=0.38,i=18.5,H=26.2]

mpec at cfa.harvard.edu mpec at cfa.harvard.edu
Thu May 2 12:21:26 EDT 2024


M.P.E.C. 2024-J24                                   Issued 2024 May 2, 16:19 UT

     The Minor Planet Electronic Circulars contain information on unusual
         minor planets, routine data on comets and natural satellites,
         and occasional editorial announcements.  They are published
    on behalf of Division F of the International Astronomical Union by the
          Minor Planet Center, Smithsonian Astrophysical Observatory,
                          Cambridge, MA 02138, U.S.A.
			  
             Prepared using the Tamkin Foundation Computer Network

                              MPC at CFA.HARVARD.EDU
            URL https://www.minorplanetcenter.net/    ISSN 1523-6714

                                    2024 HX2                                    


Observations:
     K24H02X* C2024 04 30.85049 13 37 44.39 +13 47 49.1          19.5 G EJ024K88
     K24H02X  C2024 04 30.85421 13 37 49.99 +13 50 32.6          19.8 G EJ024K88
     K24H02X KC2024 04 30.86901413 38 12.26 +14 01 19.6          19.6 R EJ024K88
     K24H02X KC2024 04 30.87166513 38 16.29 +14 03 14.7          19.5 R EJ024K88
     K24H02X KC2024 04 30.87431513 38 20.29 +14 05 10.1          19.7 R EJ024K88
     K24H02X KC2024 04 30.89725013 38 54.87 +14 21 53.2          19.6 RoEJ024K88
     K24H02X KC2024 04 30.89901 13 38 57.77 +14 23 03.9          18.8 GXEJ024G02
     K24H02X KC2024 04 30.90067513 39 00.09 +14 24 23.0          19.5 RoEJ024K88
     K24H02X KC2024 04 30.90273013 39 03.17 +14 25 52.4          19.6 RoEJ024K88
     K24H02X KC2024 04 30.91667 13 39 24.61 +14 35 56.6          18.7 GXEJ024G02
     K24H02X KC2024 04 30.94451113 40 06.43 +14 56 13.9          19.3 RoEJ024K88
     K24H02X KC2024 04 30.94715813 40 10.49 +14 58 07.5          19.6 RoEJ024K88
     K24H02X KC2024 04 30.94981313 40 14.50 +15 00 03.4          19.4 RoEJ024K88
     K24H02X KB2024 04 30.96939 13 40 42.70 +15 14 22.4                XEJ024M45
     K24H02X KB2024 04 30.97152 13 40 45.93 +15 15 54.4          19.3 GXEJ024M45
     K24H02X KC2024 04 30.98308113 41 08.534+15 23 51.36               XEJ024G01
     K24H02X KC2024 04 30.99498013 41 26.729+15 32 26.95         20.2 GXEJ024G01
     K24H02X KC2024 05 01.00541613 41 42.950+15 40 01.99               XEJ024G01
     K24H02X KC2024 05 01.01520813 41 54.84 +15 47 22.9          19.7 RoEJ024K88
     K24H02X KC2024 05 01.01553913 41 55.36 +15 47 37.1          19.5 RoEJ024K88
     K24H02X KC2024 05 01.01705313 41 57.70 +15 48 41.9          19.5 RoEJ024K88
     K24H02X KB2024 05 01.02016213 42 19.850+15 56 47.87         19.0 VZEJ024Y05
     K24H02X KB2024 05 01.02510113 42 27.206+16 00 23.98               ZEJ024Y05
     K24H02X KB2024 05 01.03013413 42 34.807+16 04 04.15               ZEJ024Y05
     K24H02X KC2024 05 01.18807413 46 54.32 +17 53 32.2          19.9 GXEJ024858
     K24H02X KC2024 05 01.19259813 47 01.34 +17 56 48.8          19.6 GXEJ024858
     K24H02X KC2024 05 01.19718613 47 08.47 +18 00 08.0          19.4 GXEJ024858
     K24H02X mC2024 05 01.21056413 47 30.750+18 09 59.33         19.70GVEJ024I52
     K24H02X mC2024 05 01.21073413 47 30.991+18 10 06.56         20.31GVEJ024I52
     K24H02X mC2024 05 01.21091013 47 31.279+18 10 13.73         19.93GVEJ024I52
     K24H02X mC2024 05 01.21108013 47 31.546+18 10 21.54         20.25GVEJ024I52
     K24H02X KC2024 05 01.89043814 06 49.63 +26 04 16.5          20.0 RoEJ024K88
     K24H02X KC2024 05 01.89215314 06 52.49 +26 05 25.9          20.1 RoEJ024K88
     K24H02X KC2024 05 01.89386614 06 55.42 +26 06 36.3          20.2 RoEJ024K88
     K24H02X KC2024 05 02.03550314 10 54.54 +27 40 31.7          19.9 RoEJ024K88
     K24H02X KC2024 05 02.03954614 11 01.49 +27 43 09.6          19.9 RoEJ024K88
     K24H02X KC2024 05 02.04160014 11 04.99 +27 44 29.9          19.8 RoEJ024K88
     K24H02X KC2024 05 02.04365414 11 08.53 +27 45 50.9          19.8 RoEJ024K88
     K24H02X KC2024 05 02.14492314 14 29.18 +28 52 46.8          19.9 GVEJ024H21
     K24H02X KC2024 05 02.14774014 14 34.00 +28 54 37.0          19.9 GVEJ024H21
     K24H02X KC2024 05 02.15055714 14 38.82 +28 56 27.1          20.0 GVEJ024H21
     K24H02X KC2024 05 02.15332714 14 43.56 +28 58 15.4          20.1 GVEJ024H21
     K24H02X KC2024 05 02.30968214 19 17.324+30 38 36.96         19.94GVEJ024I52
     K24H02X KC2024 05 02.31109614 19 19.751+30 39 29.99         20.37GVEJ024I52
     K24H02X KC2024 05 02.31252014 19 22.184+30 40 23.66         20.08GVEJ024I52
     K24H02X KC2024 05 02.31394014 19 24.596+30 41 16.94         19.75GVEJ024I52

Observer details:
858 Tebbutt Observatory, Edgewood.  Observer F. B. Zoltowski.  0.51-m f/8.1
    Schmidt-Cassegrain + CCD.
G01 Universitaetssternwarte Oldenburg.  Observers T. Hoffmann, D. Gauk.
    0.40-m f/5.8 Ritchey-Chretien + CCD.
G02 KYSUCE Observatory, Kysucke Nove Mesto.  Observer M. Urbanik.  0.40-m
    f/6.8 Corrected Dall-Kirkham + CCD.
H21 Astronomical Research Observatory, Westfield.  Observer R. Holmes.
    Measurers T. Linder, R. Holmes, L. Horn.  0.76-m f/3.0 astrograph + CCD.
I52 Steward Observatory, Mt. Lemmon Station.  Observers V. F. Carvajal, G. J.
    Leonard.  Measurers T. Beuden, V. F. Carvajal, D. Fay, J. B. Fazekas, D.
    C. Fuls, A. R. Gibbs, A. D. Grauer, H. Groeller, J. K. Hogan, R. A.
    Kowalski, S. M. Larson, G. J. Leonard, D. Rankin, R. L. Seaman, F. C.
    Shelly, K. W. Wierzchos.  1.0-m prime focus + CCD.
K88 GINOP-KHK, Piszkesteto.  Observer K. Sarneczky.  0.60-m Schmidt + CCD.
M45 Starhopper Observatory, Sfantu Gheorghe.  Observer F. Ursache.  0.41-m
    f/7.5 reflector + CMO.
Y05 SONEAR Wykrota-CEAMIG, Serra da Piedade.  Observers C. Jacques, A.
    Caetano, E. Pimentel.  Measurer C. Jacques.  0.45-m f/2.9 reflector + CMO.

Orbital elements:
2024 HX2                                                 Earth MOID = 0.0264 AU
Epoch 2024 Mar. 31.0 TT = JDT 2460400.5                 Bell                    
M 335.72186              (2000.0)            P               Q                  
n   0.47889276     Peri.   24.15209     -0.47609334     +0.85718912             
a   1.6179951      Node   218.26591     -0.84960663     -0.50597944             
e   0.3753415      Incl.   18.48647     -0.22694426     +0.09597712             
P   2.06           H   26.22          G   0.15           U   7                  
Residuals in seconds of arc
240430 K88  0.3+  0.6+    240430 G01  0.9-  1.3-    240501 K88  0.5-  0.8-
240430 K88  0.3+  1.3+    240501 G01  0.9+  0.6+    240501 K88  0.3+  0.3+
240430 K88  0.3-  0.7+    240501 K88  0.5-  0.1-    240502 K88  0.3-  0.4-
240430 K88  0.2+  0.1-    240501 K88  0.4-  0.2-    240502 K88  0.1-  0.6-
240430 K88  0.3+  0.5-    240501 K88  0.5-  1.0-    240502 K88  0.5-  0.6-
240430 K88  0.2-  0.5+    240501 Y05  0.4-  1.0-    240502 K88  0.4-  0.2+
240430 G02  0.2-  0.7+    240501 Y05  1.5-  0.8-    240502 H21  0.2-  0.2+
240430 K88  0.5+  0.7+    240501 Y05  1.1-  0.5-    240502 H21  0.1-  0.2+
240430 K88  0.2+  0.4+    240501 858  0.1-  0.1+    240502 H21  0.1+  0.2+
240430 G02  1.3+  2.7+    240501 858  0.1-  0.2+    240502 H21  0.2+  0.3+
240430 K88  0.3-  0.6+    240501 858  0.2+  0.2+    240502 I52  0.1-  0.2-
240430 K88  0.2+  1.0-    240501 I52  0.2+  0.0     240502 I52  0.1+  0.3-
240430 K88  0.2-  0.6-    240501 I52  0.2-  0.1-    240502 I52  0.1+  0.1-
240430 M45  0.9-  0.5+    240501 I52  0.1+  0.5-    240502 I52  0.1-  0.1-
240430 M45  1.3-  0.0     240501 I52  0.1+  0.1-
240430 G01  0.8+  0.4+    240501 K88  0.4-  0.8-

Ephemeris:
2024 HX2                 a,e,i = 1.62, 0.38, 18                  q = 1.0107
Date    TT    R. A. (2000) Decl.     Delta      r    Elong.  Phase     V
2024 04 02    10 32 09.5 -52 28 40   0.1999  1.1263   125.1    46.6    24.7
...
2024 04 17    10 55 23.9 -47 47 41   0.09924 1.0691   129.1    46.8    23.1
...
2024 04 25    11 50 43.6 -33 24 08   0.04934 1.0454   142.3    36.0    21.3
...
2024 05 01    13 41 38.1 +15 38 43   0.02834 1.0314   146.7    32.4    19.9
2024 05 02    14 09 59.6 +27 18 41   0.02926 1.0293   136.8    42.1    20.3
2024 05 03    14 40 45.8 +37 21 07   0.03165 1.0274   127.0    51.6    20.7
...
2024 05 09    17 36 13.8 +60 43 17   0.06146 1.0180    96.2    80.4    23.0
...
2024 05 17    19 22 46.1 +62 30 13   0.1110  1.0113    86.9    86.8    24.5
...
2024 06 01    20 22 42.8 +61 10 34   0.2020  1.0174    85.2    83.3    25.7

M. P. C. Staff               (C) Copyright 2024 MPC           M.P.E.C. 2024-J24





More information about the Iaude mailing list